Time,TemperatureF,DewpointF,PressureIn,WindDirection,WindDirectionDegrees,WindSpeedMPH,WindSpeedGustMPH,Humidity,HourlyPrecipIn,Conditions,Clouds,dailyrainin,SolarRadiationWatts/m^2,SoftwareType,DateUTC
2013-02-23 00:11:00,21.6,15.0,29.99,East,79,5.0,-999.0,75,-99.99,,,0.00,0,weatherlink.com 1.10,2013-02-23 06:11:00,
2013-02-23 00:27:00,21.4,15.0,29.99,East,92,3.0,-999.0,75,-99.99,,,0.00,0,weatherlink.com 1.10,2013-02-23 06:27:00,
2013-02-23 00:41:00,21.3,14.0,29.99,East,86,1.0,-999.0,74,-99.99,,,0.00,0,weatherlink.com 1.10,2013-02-23 06:41:00,
2013-02-23 00:56:00,21.3,14.0,29.98,East,84,3.0,-999.0,74,-99.99,,,0.00,0,weatherlink.com 1.10,2013-02-23 06:56:00,
2013-02-23 01:12:00,21.3,15.0,29.98,ESE,114,2.0,-999.0,75,-99.99,,,0.00,0,weatherlink.com 1.10,2013-02-23 07:12:00,
2013-02-23 01:26:00,21.1,15.0,29.98,ESE,102,4.0,-999.0,76,-99.99,,,0.00,0,weatherlink.com 1.10,2013-02-23 07:26:00,
2013-02-23 01:42:00,21.1,14.0,29.98,ESE,111,2.0,-999.0,75,-99.99,,,0.00,0,weatherlink.com 1.10,2013-02-23 07:42:00,
2013-02-23 01:56:00,21.0,14.0,29.98,SE,126,3.0,-999.0,75,-99.99,,,0.00,0,weatherlink.com 1.10,2013-02-23 07:56:00,
2013-02-23 02:11:00,20.8,14.0,29.98,ESE,123,2.0,-999.0,76,-99.99,,,0.00,0,weatherlink.com 1.10,2013-02-23 08:11:00,
2013-02-23 02:28:00,20.6,14.0,29.98,ESE,105,2.0,-999.0,76,-99.99,,,0.00,0,weatherlink.com 1.10,2013-02-23 08:28:00,
2013-02-23 02:41:00,20.5,14.0,29.98,ESE,121,3.0,-999.0,77,-99.99,,,0.00,0,weatherlink.com 1.10,2013-02-23 08:41:00,
2013-02-23 02:56:00,20.2,14.0,29.98,ENE,66,3.0,-999.0,77,-99.99,,,0.00,0,weatherlink.com 1.10,2013-02-23 08:56:00,
2013-02-23 03:11:00,19.9,14.0,29.98,East,86,0.0,-999.0,78,-99.99,,,0.00,0,weatherlink.com 1.10,2013-02-23 09:11:00,
2013-02-23 03:26:00,19.7,14.0,29.98,NE,49,2.0,-999.0,79,-99.99,,,0.00,0,weatherlink.com 1.10,2013-02-23 09:26:00,
2013-02-23 03:41:00,19.7,14.0,29.97,ENE,61,1.0,-999.0,79,-99.99,,,0.00,0,weatherlink.com 1.10,2013-02-23 09:41:00,
2013-02-23 03:57:00,19.4,14.0,29.97,ENE,69,2.0,-999.0,80,-99.99,,,0.00,0,weatherlink.com 1.10,2013-02-23 09:57:00,
2013-02-23 04:12:00,18.9,14.0,29.97,ENE,69,0.0,-999.0,80,-99.99,,,0.00,0,weatherlink.com 1.10,2013-02-23 10:12:00,
2013-02-23 04:27:00,18.3,13.0,29.97,ENE,69,0.0,-999.0,81,-99.99,,,0.00,0,weatherlink.com 1.10,2013-02-23 10:27:00,
2013-02-23 04:42:00,17.5,13.0,29.97,ENE,69,0.0,-999.0,81,-99.99,,,0.00,0,weatherlink.com 1.10,2013-02-23 10:42:00,
2013-02-23 04:57:00,17.2,13.0,29.98,ENE,69,0.0,-999.0,82,-99.99,,,0.00,0,weatherlink.com 1.10,2013-02-23 10:57:00,
2013-02-23 05:12:00,16.7,12.0,29.99,ENE,59,0.0,-999.0,82,-99.99,,,0.00,0,weatherlink.com 1.10,2013-02-23 11:12:00,
2013-02-23 05:27:00,16.4,12.0,29.99,NE,56,2.0,-999.0,83,-99.99,,,0.00,0,weatherlink.com 1.10,2013-02-23 11:27:00,
2013-02-23 05:42:00,15.9,12.0,29.99,ENE,57,0.0,-999.0,83,-99.99,,,0.00,0,weatherlink.com 1.10,2013-02-23 11:42:00,
2013-02-23 05:57:00,15.4,11.0,29.99,NE,53,2.0,-999.0,83,-99.99,,,0.00,0,weatherlink.com 1.10,2013-02-23 11:57:00,
2013-02-23 06:12:00,14.8,11.0,29.99,NE,38,2.0,-999.0,84,-99.99,,,0.00,0,weatherlink.com 1.10,2013-02-23 12:12:00,
2013-02-23 06:27:00,14.4,10.0,29.98,East,84,0.0,-999.0,83,-99.99,,,0.00,0,weatherlink.com 1.10,2013-02-23 12:27:00,
2013-02-23 06:42:00,14.0,10.0,29.99,East,84,0.0,-999.0,84,-99.99,,,0.00,0,weatherlink.com 1.10,2013-02-23 12:42:00,
2013-02-23 06:57:00,13.5,10.0,29.99,East,84,0.0,-999.0,84,-99.99,,,0.00,0,weatherlink.com 1.10,2013-02-23 12:57:00,
2013-02-23 07:12:00,12.8,9.0,29.99,East,84,0.0,-999.0,84,-99.99,,,0.00,11,weatherlink.com 1.10,2013-02-23 13:12:00,
2013-02-23 07:27:00,12.6,9.0,29.99,East,84,0.0,-999.0,85,-99.99,,,0.00,23,weatherlink.com 1.10,2013-02-23 13:27:00,
2013-02-23 07:42:00,13.1,10.0,29.99,East,84,0.0,-999.0,86,-99.99,,,0.00,37,weatherlink.com 1.10,2013-02-23 13:42:00,
2013-02-23 07:57:00,13.5,10.0,29.99,East,84,0.0,-999.0,85,-99.99,,,0.00,53,weatherlink.com 1.10,2013-02-23 13:57:00,
2013-02-23 08:12:00,14.1,10.0,29.98,ENE,63,0.0,-999.0,84,-99.99,,,0.00,47,weatherlink.com 1.10,2013-02-23 14:12:00,
2013-02-23 08:27:00,14.4,10.0,29.99,NE,40,0.0,-999.0,83,-99.99,,,0.00,100,weatherlink.com 1.10,2013-02-23 14:27:00,
2013-02-23 08:42:00,14.8,11.0,29.99,NE,42,3.0,-999.0,83,-99.99,,,0.00,127,weatherlink.com 1.10,2013-02-23 14:42:00,
2013-02-23 08:57:00,15.6,11.0,29.99,North,360,3.0,-999.0,81,-99.99,,,0.00,135,weatherlink.com 1.10,2013-02-23 14:57:00,
2013-02-23 09:12:00,16.5,11.0,29.99,North,360,1.0,-999.0,80,-99.99,,,0.00,114,weatherlink.com 1.10,2013-02-23 15:12:00,
2013-02-23 09:27:00,17.5,11.0,29.99,ENE,58,3.0,-999.0,77,-99.99,,,0.00,234,weatherlink.com 1.10,2013-02-23 15:27:00,
2013-02-23 09:43:00,18.4,12.0,29.99,NNE,24,2.0,-999.0,75,-99.99,,,0.00,230,weatherlink.com 1.10,2013-02-23 15:43:00,
2013-02-23 09:57:00,19.4,12.0,29.99,NE,37,2.0,-999.0,73,-99.99,,,0.00,221,weatherlink.com 1.10,2013-02-23 15:57:00,
2013-02-23 10:12:00,20.6,13.0,29.98,NE,49,3.0,-999.0,71,-99.99,,,0.00,520,weatherlink.com 1.10,2013-02-23 16:12:00,
2013-02-23 10:27:00,22.1,13.0,29.98,East,98,4.0,-999.0,69,-99.99,,,0.00,557,weatherlink.com 1.10,2013-02-23 16:27:00,
2013-02-23 10:42:00,22.9,14.0,29.97,ENE,68,4.0,-999.0,68,-99.99,,,0.00,589,weatherlink.com 1.10,2013-02-23 16:42:00,
2013-02-23 10:57:00,23.6,14.0,29.97,ENE,58,3.0,-999.0,67,-99.99,,,0.00,615,weatherlink.com 1.10,2013-02-23 16:57:00,
2013-02-23 11:13:00,24.5,15.0,29.97,NNE,24,4.0,-999.0,66,-99.99,,,0.00,638,weatherlink.com 1.10,2013-02-23 17:13:00,
2013-02-23 11:28:00,25.4,15.0,29.97,NE,36,5.0,-999.0,64,-99.99,,,0.00,657,weatherlink.com 1.10,2013-02-23 17:28:00,
2013-02-23 11:43:00,26.3,16.0,29.96,East,98,3.0,-999.0,64,-99.99,,,0.00,670,weatherlink.com 1.10,2013-02-23 17:43:00,
2013-02-23 11:58:00,27.3,16.0,29.96,East,85,2.0,-999.0,62,-99.99,,,0.00,680,weatherlink.com 1.10,2013-02-23 17:58:00,
2013-02-23 12:13:00,27.6,16.0,29.95,NNE,30,5.0,-999.0,61,-99.99,,,0.00,687,weatherlink.com 1.10,2013-02-23 18:13:00,
2013-02-23 12:28:00,28.8,17.0,29.95,NE,45,2.0,-999.0,61,-99.99,,,0.00,689,weatherlink.com 1.10,2013-02-23 18:28:00,
2013-02-23 12:43:00,28.7,16.0,29.94,ESE,102,5.0,-999.0,60,-99.99,,,0.00,680,weatherlink.com 1.10,2013-02-23 18:43:00,
2013-02-23 12:58:00,29.1,17.0,29.94,NE,43,2.0,-999.0,61,-99.99,,,0.00,450,weatherlink.com 1.10,2013-02-23 18:58:00,
2013-02-23 13:13:00,29.7,18.0,29.93,NE,55,3.0,-999.0,61,-99.99,,,0.00,213,weatherlink.com 1.10,2013-02-23 19:13:00,
2013-02-23 13:28:00,30.0,18.0,29.93,NNE,33,3.0,-999.0,61,-99.99,,,0.00,636,weatherlink.com 1.10,2013-02-23 19:28:00,
2013-02-23 13:43:00,30.7,19.0,29.93,NE,37,5.0,-999.0,61,-99.99,,,0.00,633,weatherlink.com 1.10,2013-02-23 19:43:00,
2013-02-23 13:58:00,31.2,18.0,29.92,ENE,73,3.0,-999.0,59,-99.99,,,0.00,387,weatherlink.com 1.10,2013-02-23 19:58:00,
2013-02-23 14:13:00,31.6,18.0,29.92,East,90,1.0,-999.0,58,-99.99,,,0.00,496,weatherlink.com 1.10,2013-02-23 20:13:00,
2013-02-23 14:28:00,32.1,18.0,29.91,NNE,30,6.0,-999.0,57,-99.99,,,0.00,531,weatherlink.com 1.10,2013-02-23 20:28:00,
2013-02-23 14:43:00,32.5,19.0,29.91,NE,49,3.0,-999.0,57,-99.99,,,0.00,517,weatherlink.com 1.10,2013-02-23 20:43:00,
2013-02-23 15:13:00,33.1,19.0,29.91,NNE,21,4.0,-999.0,57,-99.99,,,0.00,432,weatherlink.com 1.10,2013-02-23 21:13:00,
2013-02-23 15:28:00,33.1,19.0,29.91,NNE,19,5.0,-999.0,57,-99.99,,,0.00,348,weatherlink.com 1.10,2013-02-23 21:28:00,
2013-02-23 15:43:00,33.4,19.0,29.91,North,5,3.0,-999.0,57,-99.99,,,0.00,334,weatherlink.com 1.10,2013-02-23 21:43:00,
2013-02-23 15:58:00,33.5,20.0,29.91,NNE,28,4.0,-999.0,57,-99.99,,,0.00,253,weatherlink.com 1.10,2013-02-23 21:58:00,
2013-02-23 16:13:00,32.8,19.0,29.91,NE,55,5.0,-999.0,57,-99.99,,,0.00,130,weatherlink.com 1.10,2013-02-23 22:13:00,
2013-02-23 16:28:00,32.7,19.0,29.91,NE,35,3.0,-999.0,57,-99.99,,,0.00,186,weatherlink.com 1.10,2013-02-23 22:28:00,
2013-02-23 16:43:00,32.7,20.0,29.90,NE,52,4.0,-999.0,59,-99.99,,,0.00,83,weatherlink.com 1.10,2013-02-23 22:43:00,
2013-02-23 17:00:00,32.4,19.0,29.91,North,355,2.0,-999.0,59,-99.99,,,0.00,35,weatherlink.com 1.10,2013-02-23 23:00:00,
2013-02-23 17:13:00,32.4,19.0,29.91,NNE,15,3.0,-999.0,59,-99.99,,,0.00,47,weatherlink.com 1.10,2013-02-23 23:13:00,
2013-02-23 17:28:00,31.8,19.0,29.91,NE,37,2.0,-999.0,59,-99.99,,,0.00,21,weatherlink.com 1.10,2013-02-23 23:28:00,
2013-02-23 17:43:00,30.9,19.0,29.91,NE,37,1.0,-999.0,62,-99.99,,,0.00,12,weatherlink.com 1.10,2013-02-23 23:43:00,
2013-02-23 17:58:00,29.7,18.0,29.92,NE,37,2.0,-999.0,63,-99.99,,,0.00,0,weatherlink.com 1.10,2013-02-23 23:58:00,
2013-02-23 18:13:00,28.8,18.0,29.92,NNE,28,1.0,-999.0,65,-99.99,,,0.00,0,weatherlink.com 1.10,2013-02-24 00:13:00,
2013-02-23 18:28:00,28.2,18.0,29.92,North,355,2.0,-999.0,66,-99.99,,,0.00,0,weatherlink.com 1.10,2013-02-24 00:28:00,
2013-02-23 18:43:00,27.9,18.0,29.92,NNW,332,1.0,-999.0,66,-99.99,,,0.00,0,weatherlink.com 1.10,2013-02-24 00:43:00,
2013-02-23 18:58:00,27.3,18.0,29.92,North,5,1.0,-999.0,68,-99.99,,,0.00,0,weatherlink.com 1.10,2013-02-24 00:58:00,
2013-02-23 19:13:00,27.0,18.0,29.92,North,5,2.0,-999.0,69,-99.99,,,0.00,0,weatherlink.com 1.10,2013-02-24 01:13:00,
2013-02-23 19:28:00,26.7,17.0,29.92,North,355,2.0,-999.0,68,-99.99,,,0.00,0,weatherlink.com 1.10,2013-02-24 01:28:00,
2013-02-23 19:43:00,26.4,17.0,29.92,NNE,13,1.0,-999.0,69,-99.99,,,0.00,0,weatherlink.com 1.10,2013-02-24 01:43:00,
2013-02-23 19:58:00,25.6,17.0,29.92,North,5,1.0,-999.0,70,-99.99,,,0.00,0,weatherlink.com 1.10,2013-02-24 01:58:00,
2013-02-23 20:13:00,25.1,17.0,29.92,North,5,1.0,-999.0,71,-99.99,,,0.00,0,weatherlink.com 1.10,2013-02-24 02:13:00,
2013-02-23 20:28:00,24.5,17.0,29.93,North,5,3.0,-999.0,72,-99.99,,,0.00,0,weatherlink.com 1.10,2013-02-24 02:28:00,
2013-02-23 20:44:00,24.5,17.0,29.93,North,5,1.0,-999.0,72,-99.99,,,0.00,0,weatherlink.com 1.10,2013-02-24 02:44:00,
2013-02-23 20:58:00,23.9,16.0,29.93,North,5,1.0,-999.0,72,-99.99,,,0.00,0,weatherlink.com 1.10,2013-02-24 02:58:00,
2013-02-23 21:13:00,23.2,16.0,29.93,North,5,0.0,-999.0,74,-99.99,,,0.00,0,weatherlink.com 1.10,2013-02-24 03:13:00,
2013-02-23 21:28:00,23.2,16.0,29.94,North,5,1.0,-999.0,74,-99.99,,,0.00,0,weatherlink.com 1.10,2013-02-24 03:28:00,
2013-02-23 21:43:00,23.3,16.0,29.94,North,5,1.0,-999.0,74,-99.99,,,0.00,0,weatherlink.com 1.10,2013-02-24 03:43:00,
2013-02-23 21:58:00,23.2,16.0,29.95,North,5,1.0,-999.0,74,-99.99,,,0.00,0,weatherlink.com 1.10,2013-02-24 03:58:00,
2013-02-23 22:13:00,22.7,16.0,29.95,North,5,1.0,-999.0,74,-99.99,,,0.00,0,weatherlink.com 1.10,2013-02-24 04:13:00,
2013-02-23 22:28:00,22.5,15.0,29.95,North,5,1.0,-999.0,74,-99.99,,,0.00,0,weatherlink.com 1.10,2013-02-24 04:28:00,
2013-02-23 22:43:00,21.9,15.0,29.95,North,5,1.0,-999.0,75,-99.99,,,0.00,0,weatherlink.com 1.10,2013-02-24 04:43:00,
2013-02-23 22:58:00,21.3,15.0,29.95,North,5,2.0,-999.0,76,-99.99,,,0.00,0,weatherlink.com 1.10,2013-02-24 04:58:00,
2013-02-23 23:13:00,19.7,14.0,29.94,North,5,1.0,-999.0,77,-99.99,,,0.00,0,weatherlink.com 1.10,2013-02-24 05:13:00,
2013-02-23 23:28:00,19.7,14.0,29.93,North,5,3.0,-999.0,79,-99.99,,,0.00,0,weatherlink.com 1.10,2013-02-24 05:28:00,
2013-02-23 23:43:00,19.7,14.0,29.94,North,5,1.0,-999.0,79,-99.99,,,0.00,0,weatherlink.com 1.10,2013-02-24 05:43:00,
2013-02-23 23:58:00,19.7,14.0,29.94,North,5,1.0,-999.0,78,-99.99,,,0.00,0,weatherlink.com 1.10,2013-02-24 05:58:00,